User: anonymous   Login
Location: Young's Pond
(41.2695°N, 72.7766°W)
Time: 12:33:51
(UTC-04:00)
Language:

CZ-4B R/B - Orbit

View from above orbital plane
View from above orbital plane
View from above satellite
View from above satellite

Ground track
Ground track

The orbit data is extracted from the following two-line orbital elements,

1 29093U 06015B   15245.88735432 +.00006395 +00000-0 +18684-3 0  9995
2 29093 097.4924 333.8695 0077706 135.6790 318.0017 15.32647440517093
Epoch (UTC): 02 September 2015 21:17:47
Eccentricity: 0.0077706
inclination: 97.4924°
perigee height: 415 km
apogee height: 521 km
right ascension of ascending node: 333.8695°
argument of perigee: 135.6790°
revolutions per day: 15.32647440
mean anomaly at epoch: 318.0017°
orbit number at epoch: 51709

The dashed part of the orbit path shows where the satellite is in the earth's shadow,  

DLR